This is the latest recevied weather packets stored in our database for station/object F4JUT-10. If no packets are shown the sender has not sent any weather packets the latest 10 day(s).
| Time | Temp. | Humidity | Pressure | Rain* | Wind** | Luminosity | Snow |
|---|---|---|---|---|---|---|---|
| 1777677471 | 13.33° C | 45% | 1026.9 hPa | - | - | - | - |
| 1777676571 | 13.89° C | 45% | 1027.1 hPa | - | - | - | - |
| 1777675671 | 13.89° C | 46% | 1027 hPa | - | - | - | - |
| 1777674771 | 13.89° C | 46% | 1026.9 hPa | - | - | - | - |
| 1777673871 | 14.44° C | 46% | 1027 hPa | - | - | - | - |
| 1777672971 | 15° C | 44% | 1026.8 hPa | - | - | - | - |
| 1777672071 | 15° C | 44% | 1026.8 hPa | - | - | - | - |
| 1777671171 | 15.56° C | 47% | 1026.7 hPa | - | - | - | - |
| 1777670270 | 16.11° C | 49% | 1026.5 hPa | - | - | - | - |
| 1777669370 | 16.11° C | 51% | 1026.5 hPa | - | - | - | - |
| 1777668470 | 16.67° C | 51% | 1026.4 hPa | - | - | - | - |
| 1777667570 | 16.67° C | 50% | 1026.2 hPa | - | - | - | - |
| 1777666670 | 17.22° C | 51% | 1026.1 hPa | - | - | - | - |
| 1777665770 | 17.22° C | 51% | 1025.9 hPa | - | - | - | - |
| 1777664870 | 18.33° C | 51% | 1025.7 hPa | - | - | - | - |
| 1777663970 | 18.89° C | 50% | 1025.7 hPa | - | - | - | - |
| 1777663070 | 19.44° C | 49% | 1025.4 hPa | - | - | - | - |
| 1777662169 | 20° C | 45% | 1025.2 hPa | - | - | - | - |
| 1777661269 | 20.56° C | 44% | 1025.2 hPa | - | - | - | - |
| 1777660369 | 21.11° C | 42% | 1025 hPa | - | - | - | - |
| 1777659469 | 22.22° C | 41% | 1024.9 hPa | - | - | - | - |
| 1777658569 | 22.78° C | 39% | 1024.9 hPa | - | - | - | - |
| 1777657669 | 23.89° C | 36% | 1024.7 hPa | - | - | - | - |
| 1777656769 | 24.44° C | 35% | 1024.6 hPa | - | - | - | - |
| 1777655869 | 25.56° C | 34% | 1024.4 hPa | - | - | - | - |
* Rain since midnight (hover to see other rain measurements)
** Current wind speed in m/s (hover to see current wind gust speed)